Content
SEND FEEDBACK

Daily
Averages
Monthly
Summary
United States of America

INARAJAN, GUAM


Home > North America > United States > Guam
Elevation: 280 feet     Latitude: 13 18N     Longitude: 144 44E

WEATHER
 
SELECT A DAY
Number of Records: 350,199;   Date Range: 1/1/95 - 9/29/14
 
SHARE

PRINT THIS DATA

[ ← Previous Day ]
WEATHER ALMANAC - FEBRUARY 7, 2013
[ Next Day → ]
[ °C ]   °F
Weather ElementAverageHighLow
Temperature78.3 °F83.5 °F (11:55 am)74.7 °F (5:55 am)
Dewpoint72.9 °F75.2 °F (1:47 pm)69.8 °F (4:21 am)
Humidity83.6 %94 % (2:58 pm)66 % (10:55 am)
Barometer29.80 in29.87 in (12:11 am)29.75 in (2:54 pm)
Wind Speed15.2 mph20.7 mph (12:08 pm)
Wind Gust27.6 mph (12:08 pm)
Weather ElementAverage
Visibility9.2 mi
Wind DirectionENE (80.8 °)

Weather ElementTotal
Precipitation0.13 in
Cooling Degree Days14.1 (Base 65)
Growing Degree Days29.1 (Base 50)
Averaged from 91 records on February 7, 2013
WEATHER CONDITIONS BREAKOUT
WIND DIRECTION BREAKOUT
WEATHER BY HOUR - FEBRUARY 7, 2013
[ °C ]   °F
Local TimeTemperatureDewpointHumidityBarometerVisibilityWind DirectionWind SpeedGust SpeedPrecipitationEventsConditions
12:11 AM77.0 °F71.6 °F83 %29.87 in10.0 miEast (80°)10.4 mphMostly Cloudy
12:55 AM76.3 °F70.5 °F82 %29.86 in10.0 miEast (80°)10.4 mphPartly Cloudy
1:55 AM76.5 °F70.2 °F81 %29.84 in10.0 miEast (90°)10.4 mphScattered Clouds
2:55 AM75.9 °F70.2 °F82 %29.83 in10.0 miEast (80°)9.2 mphPartly Cloudy
3:55 AM75.4 °F70.9 °F86 %29.82 in10.0 miENE (60°)9.2 mphPartly Cloudy
4:21 AM75.2 °F69.8 °F83 %29.82 in10.0 miENE (60°)9.2 mphMostly Cloudy
4:27 AM75.2 °F69.8 °F83 %29.82 in10.0 miENE (70°)10.4 mphScattered Clouds
4:36 AM75.2 °F69.8 °F83 %29.82 in10.0 miENE (70°)8.1 mphMostly Cloudy
4:39 AM75.2 °F69.8 °F83 %29.82 in10.0 miENE (70°)6.9 mphScattered Clouds
4:55 AM75.4 °F70.2 °F84 %29.82 in10.0 miENE (70°)9.2 mphScattered Clouds
5:55 AM74.7 °F70.3 °F86 %29.83 in10.0 miENE (60°)9.2 mphClear
6:54 AM75.2 °F69.8 °F83 %29.84 in10.0 miNE (50°)10.4 mphMostly Cloudy
6:55 AM75.9 °F70.5 °F83 %29.84 in10.0 miNE (50°)10.4 mphMostly Cloudy
6:57 AM75.2 °F69.8 °F83 %29.84 in10.0 miNE (50°)12.7 mphScattered Clouds
7:55 AM78.6 °F70.2 °F75 %29.85 in10.0 miENE (60°)15.0 mphScattered Clouds
8:30 AM78.8 °F69.8 °F74 %29.86 in10.0 miNE (50°)13.8 mphRainLight Rain
8:37 AM78.8 °F69.8 °F74 %29.86 in10.0 miENE (60°)15.0 mphScattered Clouds
8:55 AM79.3 °F69.8 °F72 %29.87 in10.0 miENE (60°)15.0 mph0.00 inMostly Cloudy
9:55 AM79.9 °F70.5 °F73 %29.87 in10.0 miENE (70°)18.4 mphOvercast
10:55 AM83.3 °F71.1 °F66 %29.85 in10.0 miENE (60°)17.3 mphMostly Cloudy
11:55 AM83.5 °F72.1 °F69 %29.82 in10.0 miENE (60°)17.3 mph23.0 mphPartly Cloudy
12:08 PM80.6 °F73.4 °F79 %29.82 in10.0 miENE (60°)20.7 mph27.6 mphMostly Cloudy
12:22 PM80.6 °F73.4 °F79 %29.81 in10.0 miENE (60°)17.3 mph23.0 mphMostly Cloudy
12:23 PM80.6 °F73.4 °F79 %29.81 in10.0 miENE (60°)17.3 mph23.0 mphMostly Cloudy
12:24 PM80.6 °F73.4 °F79 %29.81 in10.0 miENE (60°)17.3 mph23.0 mphMostly Cloudy
12:25 PM80.6 °F73.4 °F79 %29.81 in10.0 miENE (60°)17.3 mph23.0 mphMostly Cloudy
12:30 PM82.4 °F73.4 °F74 %29.80 in10.0 miEast (80°)17.3 mphMostly Cloudy
12:37 PM82.4 °F73.4 °F74 %29.80 in10.0 miENE (70°)15.0 mph25.3 mphMostly Cloudy
12:40 PM82.4 °F73.4 °F74 %29.80 in10.0 miEast (80°)17.3 mph25.3 mphMostly Cloudy
12:55 PM82.0 °F73.9 °F76 %29.79 in10.0 miENE (70°)19.6 mphMostly Cloudy
1:04 PM82.4 °F73.4 °F74 %29.78 in10.0 miENE (70°)20.7 mph27.6 mphMostly Cloudy
1:22 PM82.4 °F73.4 °F74 %29.78 in10.0 miENE (70°)19.6 mphMostly Cloudy
1:34 PM80.6 °F73.4 °F79 %29.78 in10.0 miENE (70°)17.3 mphOvercast
1:35 PM78.8 °F73.4 °F83 %29.78 in10.0 miENE (70°)18.4 mphLight Drizzle
1:37 PM78.8 °F73.4 °F83 %29.78 in8.0 miENE (70°)18.4 mphLight Drizzle
1:39 PM78.8 °F73.4 °F83 %29.78 in7.0 miENE (70°)15.0 mphLight Drizzle
1:40 PM78.8 °F73.4 °F83 %29.78 in7.0 miENE (70°)16.1 mphLight Drizzle
1:47 PM78.8 °F75.2 °F89 %29.77 in9.0 miENE (70°)17.3 mphMostly Cloudy
1:51 PM80.6 °F73.4 °F79 %29.77 in10.0 miENE (70°)18.4 mph25.3 mphMostly Cloudy
1:55 PM81.3 °F73.9 °F78 %29.77 in10.0 miENE (70°)17.3 mph25.3 mph0.00 inScattered Clouds
2:17 PM82.4 °F73.4 °F74 %29.76 in10.0 miENE (70°)18.4 mphMostly Cloudy
2:49 PM80.6 °F73.4 °F79 %29.76 in6.0 miEast (100°)20.7 mph26.5 mphRainLight Rain
2:54 PM77.0 °F73.4 °F89 %29.75 in2.5 miEast (100°)11.5 mph26.5 mphRainRain
2:55 PM77.5 °F74.3 °F90 %29.75 in2.5 miEast (100°)12.7 mph26.5 mph0.02 inRainRain
2:58 PM77.0 °F75.2 °F94 %29.75 in3.0 miEast (100°)13.8 mph26.5 mphRainLight Rain
3:00 PM77.0 °F75.2 °F94 %29.75 in4.0 miEast (100°)12.7 mph20.7 mphRainLight Rain
3:01 PM77.0 °F75.2 °F94 %29.75 in5.0 miEast (100°)11.5 mph20.7 mphOvercast
3:04 PM77.0 °F75.2 °F94 %29.76 in10.0 miEast (100°)10.4 mph20.7 mphOvercast
3:20 PM78.8 °F75.2 °F89 %29.75 in10.0 miENE (70°)16.1 mphOvercast
3:29 PM78.8 °F75.2 °F89 %29.75 in10.0 miEast (80°)16.1 mph23.0 mphOvercast
3:30 PM78.8 °F75.2 °F89 %29.75 in10.0 miEast (90°)17.3 mph23.0 mphOvercast
3:31 PM78.8 °F73.4 °F83 %29.75 in10.0 miEast (90°)17.3 mph24.2 mphOvercast
3:48 PM80.6 °F75.2 °F84 %29.76 in10.0 miEast (90°)15.0 mphMostly Cloudy
3:52 PM80.6 °F73.4 °F79 %29.75 in10.0 miEast (90°)16.1 mph23.0 mphMostly Cloudy
3:55 PM80.1 °F73.9 °F81 %29.76 in10.0 miEast (90°)13.8 mph23.0 mph0.00 inMostly Cloudy
4:16 PM80.6 °F73.4 °F79 %29.75 in10.0 miEast (80°)17.3 mphMostly Cloudy
4:32 PM80.6 °F73.4 °F79 %29.75 in10.0 miEast (90°)15.0 mph20.7 mphOvercast
4:49 PM80.6 °F73.4 °F79 %29.76 in10.0 miEast (90°)15.0 mph20.7 mphMostly Cloudy
4:55 PM80.2 °F73.6 °F80 %29.76 in10.0 miEast (90°)17.3 mphScattered Clouds
5:12 PM80.6 °F73.4 °F79 %29.76 in10.0 miEast (90°)15.0 mphMostly Cloudy
5:25 PM78.8 °F73.4 °F83 %29.76 in6.0 miEast (100°)20.7 mph26.5 mphRainRain
5:35 PM75.2 °F73.4 °F94 %29.77 in9.0 miEast (90°)19.6 mph25.3 mphOvercast
5:55 PM76.1 °F72.0 °F87 %29.77 in10.0 miEast (100°)11.5 mph0.01 inOvercast
5:59 PM77.0 °F71.6 °F83 %29.77 in10.0 miEast (90°)13.8 mphOvercast
6:55 PM77.4 °F73.8 °F89 %29.78 in10.0 miENE (70°)11.5 mphPartly Cloudy
7:00 PM77.0 °F73.4 °F89 %29.79 in7.0 miEast (80°)19.6 mph26.5 mphRainRain
7:19 PM75.2 °F73.4 °F94 %29.79 in10.0 miEast (90°)11.5 mphMostly Cloudy
7:31 PM77.0 °F73.4 °F89 %29.79 in10.0 miEast (90°)16.1 mph24.2 mphMostly Cloudy
7:32 PM77.0 °F73.4 °F89 %29.79 in10.0 miEast (90°)17.3 mph24.2 mphRainLight Rain
7:41 PM77.0 °F73.4 °F89 %29.80 in10.0 miEast (100°)15.0 mph24.2 mphMostly Cloudy
7:55 PM77.7 °F73.6 °F87 %29.80 in10.0 miEast (90°)17.3 mph0.03 inMostly Cloudy
8:26 PM78.8 °F73.4 °F83 %29.81 in10.0 miEast (100°)16.1 mph24.2 mphScattered Clouds
8:29 PM78.8 °F73.4 °F83 %29.82 in10.0 miEast (90°)18.4 mph24.2 mphRainLight Rain
8:45 PM77.0 °F73.4 °F89 %29.82 in10.0 miEast (80°)15.0 mphMostly Cloudy
8:46 PM77.0 °F73.4 °F89 %29.82 in10.0 miEast (80°)15.0 mphMostly Cloudy
8:54 PM77.0 °F73.4 °F89 %29.83 in10.0 miEast (90°)15.0 mphMostly Cloudy
8:55 PM77.2 °F73.6 °F89 %29.83 in10.0 miEast (80°)15.0 mph0.01 inMostly Cloudy
9:13 PM77.0 °F73.4 °F89 %29.83 in10.0 miESE (110°)13.8 mphRainLight Rain
9:22 PM77.0 °F73.4 °F89 %29.83 in10.0 miEast (90°)15.0 mphRainLight Rain
9:24 PM77.0 °F73.4 °F89 %29.83 in10.0 miEast (90°)19.6 mph25.3 mphMostly Cloudy
9:26 PM77.0 °F73.4 °F89 %29.83 in10.0 miEast (90°)18.4 mph25.3 mphScattered Clouds
9:55 PM77.7 °F73.8 °F88 %29.84 in10.0 miEast (90°)15.0 mph0.00 inScattered Clouds
10:00 PM77.0 °F73.4 °F89 %29.84 in10.0 miEast (90°)16.1 mphMostly Cloudy
10:13 PM77.0 °F73.4 °F89 %29.84 in10.0 miESE (110°)11.5 mphScattered Clouds
10:55 PM77.5 °F73.9 °F89 %29.84 in10.0 miEast (100°)13.8 mphPartly Cloudy
11:06 PM77.0 °F73.4 °F89 %29.84 in8.0 miEast (80°)20.7 mph26.5 mphRainLight Rain
11:20 PM77.0 °F73.4 °F89 %29.84 in4.0 miESE (110°)18.4 mphMostly Cloudy
11:23 PM77.0 °F73.4 °F89 %29.84 in3.0 miESE (110°)16.1 mphRainLight Rain
11:31 PM77.0 °F73.4 °F89 %29.83 in6.0 miESE (110°)12.7 mphRainLight Rain
11:35 PM77.0 °F73.4 °F89 %29.83 in10.0 miEast (100°)12.7 mphScattered Clouds
11:55 PM77.5 °F74.5 °F90 %29.83 in10.0 miEast (90°)18.4 mph0.06 inMostly Cloudy
Hourly data recorded from PGUA, located miles away from Inarajan, Guam







STORIES FROM OUR PARTNERS